sat.trackr.live / text

‹ back to catalog

STARLINK-5496

NORAD 56886 · 2023-083L

PAYLOAD ACTIVE UNKNOWN

§ Identity

Operator
Country
US
Launch date
2023-06-12
Launch site
AFETR
Launch vehicle
Mass (kg)
RCS (m²)

Purposes: comms

External: N2YO · Heavens-Above · Gunter

§ Orbital elements

Epoch: 2026-09-20T03:29:18.972672Z

Period
94.27 min
Inclination
43.0027°
Eccentricity
0.0001354
Mean motion
15.27576134 rev/d
Perigee alt
482.1 km
Apogee alt
484.0 km
Semi-major
6,861.2 km
B*
2.8380e-5
RAAN
66.6873°
Arg perigee
251.3645°
Mean anomaly
108.7060°
Rev number
18,137

§ Raw data

STARLINK-54961 56886U 23083L   26263.14535848  .00000519  00000+0  28380-4 0  99952 56886  43.0027  66.6873 0001354 251.3645 108.7060 15.27576134181379

JSON: /api/v1/satellites/56886 · /tle

For live sub-satellite position, see the globe view (requires WebGL).

§ Visibility from observer

Set your observer location to see the next 7 days of passes ≥ 10°. The values pass through the URL so the page stays shareable.

No JS? Fill the form by hand. The geolocation button needs JavaScript.